User: anonymous   Login
Location: Unspecified
(0.0000°N, 0.0000°E)
Time: 19:38:38
(UTC+00:00)
Language:

SBIRS GEO 2 (USA 241) - Orbit

View from above orbital plane
View from above orbital plane
View from above satellite
View from above satellite

Ground track
Ground track

The orbit data is extracted from the following two-line orbital elements,

1 39120U 13011A   18140.18660967 0.00000000  00000-0  00000-0 0    01
2 39120   3.1617 325.6039 0002803 338.1498  21.8399  1.00270000    04
Epoch (UTC): 20 May 2018 04:28:43
Eccentricity: 0.0002803
inclination: 3.1617°
perigee height: 35775 km
apogee height: 35798 km
right ascension of ascending node: 325.6039°
argument of perigee: 338.1498°
revolutions per day: 1.00270000
mean anomaly at epoch: 21.8399°
orbit number at epoch: 0

The dashed part of the orbit path shows where the satellite is in the earth's shadow,  

DLR